Regional Weather Roundup
Issued by NWS

Home | Current Version | Previous Version | Text Only | Print | Product List | Glossary On
Versions: 1 2 3 4 5 6 7 8 9 10 11 12 13 14 15 16 17 18 19 20 21 22 23 24 25 26 27 28 29 30 31 32 33 34 35 36 37 38 39 40 41 42 43 44 45 46 47 48 49 50
000
ASUS42 KTBW 221216
RWRFL
FLORIDA REGIONAL WEATHER ROUNDUP
NATIONAL WEATHER SERVICE TAMPA BAY RUSKIN FL
700 AM EST SUN JAN 22 2017

NOTE: "FAIR" INDICATES FEW OR NO CLOUDS BELOW 12,000 FEET WITH NO
SIGNIFICANT WEATHER AND/OR OBSTRUCTIONS TO VISIBILITY.

FLZ001>010-012>015-112-114-115-221300-
PANHANDLE FLORIDA

CITY           SKY/WX    TMP DP  RH WIND       PRES   REMARKS
PENSACOLA      MOCLDY    72  68  87 SW9       29.51F
PENSACOLA NAS  CLOUDY    71  69  93 SW7       29.51F FOG
MILTON NAS     LGT RAIN  70  67  90 SW5       29.50
CRESTVIEW      CLOUDY    72  68  87 W8        29.54S
DUKE FIELD     FAIR      72  68  88 S7        29.51F
VALPARAISO     MOCLDY    72  70  93 SW8       29.53F
MARY ESTHER    CLOUDY    71  64  79 SW7       29.51F
PANAMA CITY    CLOUDY    74  71  91 S14G28    29.54S
TYNDALL AFB    LGT RAIN  72  70  94 S9        29.55F
APALACHICOLA   CLOUDY    73  72  96 SW14G23   29.56R

STATION/POSITION SKY/WX   TEMP    WIND        PRES    WAVE   SWELL
                          AIR SEA DIR/SP/G            HT/PER HT/PER
                          (F)     (DEG/KT/KT) (MB)    (FT/S) (FT/S)
30.1N   87.6W              68 66  240/  6/  8  999.8    6/ 8   7/ 8
28.8N   86.0W              77 75              1001.1    9/ 7
PANAMA CITY BEAC           70 69  200/  8/  9 1000.7F
TOWER C                    73     200/ 25/ 26 1001.3F
28.5N   84.5W              76 73  210/ 17/ 23 1003.3    7/ 7   3/11

$$
FLZ011-016>038-118-127-128-134-139-239-221300-
NORTH FLORIDA

CITY           SKY/WX    TMP DP  RH WIND       PRES   REMARKS
MARIANNA       CLOUDY    72  71  97 SW7       29.52F
TALLAHASSEE    MOCLDY    73  71  93 S10       29.54F THUNDER
PERRY          CLOUDY    73  70  91 S17G25    29.61F
CROSS CITY     CLOUDY    72  70  94 S12       29.65F
LAKE CITY      MOCLDY    72  70  94 S12G17    29.63F
GAINESVILLE    CLOUDY    72  68  87 S9        29.68S
WILLISTON      MOCLDY    73  70  88 S6G13     29.69S
PALATKA        CLOUDY    72  68  88 S8G17     29.70F
MAYPORT NAS    MOCLDY    69  64  84 S16       29.67S
JACKSONVILLE   MOCLDY    69  66  90 S15G26    29.64F
JAX NAS        MOCLDY    69  64  84 S15       29.67F
FERNANDINA BEA CLOUDY    72  66  83 S10       29.64F
ST AUGUSTINE   CLOUDY    71  65  81 S14       29.69F

STATION/POSITION SKY/WX   TEMP    WIND        PRES    WAVE   SWELL
                          AIR SEA DIR/SP/G            HT/PER HT/PER
                          (F)     (DEG/KT/KT) (MB)    (FT/S) (FT/S)
SHELL POINT      NOT AVBL
KEATON BEACH               68     160/ 20/ 23 1002.5F
CEDAR KEY                  69     190/ 20/ 23 1005.1F
FERNANDINA                 68 66  160/  8/ 13 1004.6F
30.7N   81.3W                 63                N/A     3/ 4   2/12
MAYPORT                    69 64  190/  8/ 15 1004.8F
31.4N   80.9W              67 62  180/ 23/ 27 1002.9    4/ 4   2/12
ST AUGUSTINE               69 64  180/ 15/ 16 1005.9F

$$
FLZ040-043>046-052-053-057-058-063-144-221300-
INTERIOR CENTRAL FLORIDA

CITY           SKY/WX    TMP DP  RH WIND       PRES   REMARKS
OCALA          CLOUDY    72  64  78 S14       29.70F
THE VILLAGES     N/A     73  73 100 MISG      29.63S
LEESBURG       CLOUDY    71  66  84 S10       29.73S
SANFORD        CLEAR     69  65  86 S13       29.73F
ORLANDO EXEC   MOCLDY    69  65  86 S13       29.75S
ORLANDO INTL   MOCLDY    69  65  86 S9        29.76S
KISSIMMEE      CLOUDY    69  67  93 S8        29.77R
WINTER HAVEN   CLOUDY    69  66  90 S9        29.76R
LAKELAND       CLOUDY    70  70 100 S14       29.75R
BARTOW         MOCLDY    66  66 100 S10       29.76S
OKEECHOBEE     PTCLDY    68  68 100 S8        29.79S

$$
FLZ041-047-054-059-064-141-147-221300-
EAST CENTRAL FLORIDA

CITY           SKY/WX    TMP DP  RH WIND       PRES   REMARKS
ORMOND BEACH   PTCLDY    68  64  88 S13       29.72
DAYTONA BEACH  PTCLDY    68  65  90 S7        29.72F
DELAND         PTCLDY    70  66  88 S13       29.72F
NEW SMYRNA BEA PTCLDY    68  66  94 S16G23    29.73
JFK SPACE CTR  CLEAR     69  66  91 SW12      29.75S
TITUSVILLE     PTCLDY    70  66  88 S16       29.77
CAPE CANAVERAL PTCLDY    70  66  88 S14       29.76R
PATRICK AFB    CLEAR     70  68  92 S16       29.76S
MELBOURNE      PTCLDY    69  67  93 S10       29.77S
VERO BEACH     CLOUDY    71  68  90 S10       29.79S
FT PIERCE      CLOUDY    70  67  90 S7        29.79S
STUART         CLEAR     73  70  88 S7        29.81S

STATION/POSITION SKY/WX   TEMP    WIND        PRES    WAVE   SWELL
                          AIR SEA DIR/SP/G            HT/PER HT/PER
                          (F)     (DEG/KT/KT) (MB)    (FT/S) (FT/S)
TRIDENT PIER     NOT AVBL
28.4N   80.5W                 70                N/A     4/ 5
27.5N   80.2W                 76                N/A     3/11   2/11

$$
FLZ050-056-061-142-242-148-248-149-249-151-251-155-255-
160-260-221300-
WEST CENTRAL FLORIDA

CITY           SKY/WX    TMP DP  RH WIND       PRES   REMARKS
CRYSTAL RIVER  CLOUDY    72  68  88 S3        29.70S
INVERNESS      CLOUDY    70  68  94 S8        29.72S
BROOKSVILLE    CLOUDY    72  69  90 S9        29.72R
CLEARWATER AIR CLOUDY    72  72 100 S13G21    29.70S
ST PETE CLEARW CLOUDY    74  71  91 S18G28    29.70F
TAMPA INTL     CLOUDY    74  71  91 S15G28    29.71F
TAMPA EXEC     CLOUDY    73  68  83 S9        29.73F
PLANT CITY     CLOUDY    72  70  94 S9        29.75F
MACDILL AFB    PTCLDY    72  72 100 W16       29.71F
PETER O KNIGHT CLOUDY    73  72  94 S14       29.72F
ST PETERSBURG  CLOUDY    72  71  97 SW21      29.70S
SARASOTA       CLOUDY    72  70  93 S18G26    29.72S
VENICE         FAIR      72  72 100 S12G20    29.75S

STATION/POSITION SKY/WX   TEMP    WIND        PRES    WAVE   SWELL
                          AIR SEA DIR/SP/G            HT/PER HT/PER
                          (F)     (DEG/KT/KT) (MB)    (FT/S) (FT/S)
27.3N   84.2W                 77                N/A     6/ 7
CLEARWATER BEACH           72 70  170/ 21/ 26 1005.6S
MIDDLE TAMPA BAY           72     200/ 21/ 23 1006.4S
VENICE                     71 71  170/ 15/ 16 1007.0R

$$
FLZ066-069-070-075>078-162-262-165-265-221300-
SOUTHWEST FLORIDA AND KEYS

CITY           SKY/WX    TMP DP  RH WIND       PRES   REMARKS
PUNTA GORDA    PTCLDY    73  70  90 S14G22    29.78R
FT MYERS       PTCLDY    74  71  91 S13G23    29.76S
SOUTHWEST INTL CLOUDY    74  70  87 S14       29.77S
NAPLES         PTCLDY    74  71  91 S13G22    29.77F
MARCO ISLAND   MOCLDY    73  70  88 S10G18    29.78F
MARATHON       CLOUDY    80  71  74 S12G21    29.83R
KEY WEST NAS   PTCLDY    77  71  82 S20       29.81S
KEY WEST INTL  NOT AVBL

STATION/POSITION SKY/WX   TEMP    WIND        PRES    WAVE   SWELL
                          AIR SEA DIR/SP/G            HT/PER HT/PER
                          (F)     (DEG/KT/KT) (MB)    (FT/S) (FT/S)
NAPLES                        72              1008.0F
26.0N   85.6W              77 76  190/ 19/ 23 1004.4R   6/ 8   2/12
DRY TORTUGAS               77     180/ 15/ 16 1008.0F
SAND KEY                   77     200/ 21/ 26 1009.7R
LONG KEY                   77 74  200/ 17/ 20 1010.2S

$$
FLZ067-068-071>074-168-172>174-221300-
SOUTHEAST FLORIDA

CITY           SKY/WX    TMP DP  RH WIND       PRES   REMARKS
W PALM BEACH   PTCLDY    72  68  87 S9        29.83R
BOCA RATON     CLEAR     73  68  83 SW10      29.82
FT LAUDER-EXEC CLEAR     73  67  81 S8        29.82S
FT LAUDERDALE  PTCLDY    74  69  85 S8        29.82S
POMPANO BEACH  CLEAR     74  68  81 S10       29.82S
PEMBROKE PINES CLEAR     74  68  81 S7        29.84R
OPA LOCKA      CLEAR     74  68  81 S10       29.83S
MIAMI          PTCLDY    76  69  79 S9        29.83R
WEST KENDALL   CLEAR     74  69  85 S8        29.83R
HOMESTEAD      CLEAR     73  73 100 S7        29.83S

STATION/POSITION SKY/WX   TEMP    WIND        PRES    WAVE   SWELL
                          AIR SEA DIR/SP/G            HT/PER HT/PER
                          (F)     (DEG/KT/KT) (MB)    (FT/S) (FT/S)
PORT EVERGLADES            74     190/  6/ 10 1009.9R
VIRGINIA KEY               75 80  200/ 12/ 15 1010.5R
LAKE WORTH                 74 76  190/ 12/ 14 1009.6R
FOWEY ROCKS                76 75  190/ 22/ 25 1010.7R

$$




USA.gov is the U.S. government's official web portal to all federal, state and local government web resources and services.